[Iaude] MPEC M37: 2024 LJ6 [a=1.36,e=0.26,i=30.1,H=24.0]
    mpec at cfa.harvard.edu 
    mpec at cfa.harvard.edu
       
    Fri Jun 21 07:06:51 EDT 2024
    
    
  
M.P.E.C. 2024-M37                                 Issued 2024 June 21, 11:05 UT
     The Minor Planet Electronic Circulars contain information on unusual
         minor planets, routine data on comets and natural satellites,
         and occasional editorial announcements.  They are published
    on behalf of Division F of the International Astronomical Union by the
          Minor Planet Center, Smithsonian Astrophysical Observatory,
                          Cambridge, MA 02138, U.S.A.
			  
             Prepared using the Tamkin Foundation Computer Network
                              MPC at CFA.HARVARD.EDU
            URL https://www.minorplanetcenter.net/    ISSN 1523-6714
                                    2024 LJ6                                    
Observations:
     K24L06J  C2024 05 29.50044518 20 52.326+49 48 16.49         22.41GVEM037F52
     K24L06J  C2024 05 29.51433118 20 52.144+49 48 07.22         23.02GVEM037F52
     K24L06J  C2024 05 29.52812318 20 52.025+49 47 57.58         22.72GVEM037F52
     K24L06J  C2024 05 29.54191618 20 51.870+49 47 47.47               VEM037F52
     K24L06J  C2024 06 03.52407518 22 33.919+48 19 43.85         21.93GVEM037F51
     K24L06J  C2024 06 03.53639718 22 33.701+48 19 23.54         21.72GVEM037F51
     K24L06J  C2024 06 03.54869118 22 33.429+48 19 03.02         22.07GVEM037F51
     K24L06J  C2024 06 03.56101018 22 33.194+48 18 41.94         21.82GVEM037F51
     K24L06J  C2024 06 08.46279118 24 34.992+44 35 23.08         20.67GVEM037F51
     K24L06J  C2024 06 08.47571618 24 34.580+44 34 25.12         20.84GVEM037F51
     K24L06J* C2024 06 13.43654718 29 03.257+28 44 29.62         18.38oVEM037T05
     K24L06J  C2024 06 13.43938518 29 03.264+28 43 11.39         18.37oVEM037T05
     K24L06J  C2024 06 13.44227918 29 03.190+28 41 51.43         18.55oVEM037T05
     K24L06J  C2024 06 13.44815718 29 03.086+28 39 10.40         18.48oVEM037T05
     K24L06J  C2024 06 17.01406418 48 15.871-56 50 58.70         16.06oVEM037M22
     K24L06J  C2024 06 17.01690718 48 17.882-56 56 33.18         16.06oVEM037M22
     K24L06J  C2024 06 17.04881718 48 41.158-57 58 28.34         15.98oVEM037M22
     K24L06J  C2024 06 17.05494718 48 45.816-58 10 13.91         15.94oVEM037M22
Observer details:
F51 Pan-STARRS 1, Haleakala.  Observers J. Herman, T. Lowe, P. Minguez, A.
    Schultz, I. Smith.  Measurers K. Chambers, T. de Boer, J. Fairlamb, H.
    Gao, M. Huber, C.-C. Lin, E. Magnier, Y. Ramanjooloo, R. Wainscoat, R.
    Weryk.  1.8-m Ritchey-Chretien + CCD.
F52 Pan-STARRS 2, Haleakala.  Observers J. Herman, T. Lowe, P. Minguez, A.
    Schultz, I. Smith.  Measurers K. Chambers, T. de Boer, J. Fairlamb, H.
    Gao, M. Huber, C.-C. Lin, E. Magnier, Y. Ramanjooloo, R. Wainscoat, R.
    Weryk.  1.8-m Ritchey-Chretien + CCD.
M22 ATLAS South Africa, Sutherland.  Observers L. Denneau, R. Siverd, J.
    Tonry, H. Weiland.  Measurers L. Denneau, N. Erasmus, A. Fitzsimmons, J.
    Robinson, R. Siverd, J. Tonry, H. Weiland.  0.5-m Reflector + CCD.
T05 ATLAS-HKO, Haleakala.  Observers L. Denneau, R. Siverd, J. Tonry, H.
    Weiland.  Measurers L. Denneau, N. Erasmus, A. Fitzsimmons, J. Robinson,
    R. Siverd, J. Tonry, H. Weiland.  0.5-m Reflector + CCD.
Orbital elements:
2024 LJ6                                                 Earth MOID = 0.0139 AU
Epoch 2024 Mar. 31.0 TT = JDT 2460400.5                 Veres                   
M 297.84337              (2000.0)            P               Q                  
n   0.62043253     Peri.  204.77953     +0.28732230     +0.81719154             
a   1.3614646      Node    85.31717     -0.77381109     +0.50546697             
e   0.2576789      Incl.   30.08718     -0.56450181     -0.27694968             
P   1.59           H   24.00          G   0.15           U   8                  
Residuals in seconds of arc
240529 F52  0.3+  0.3+    240603 F51  0.1-  0.1+    240613 T05  0.0   0.4-
240529 F52  0.1-  0.2+    240603 F51  0.1-  0.1+    240613 T05  0.2+  2.0+
240529 F52  0.1+  0.1-    240608 F51  0.0   0.0     240617 M22  0.0   0.0
240529 F52  0.1-  0.5-    240608 F51  0.0   0.1-    240617 M22  0.1+  0.1+
240603 F51  0.1-  0.0     240613 T05  0.5-  0.9-    240617 M22  0.0   0.1+
240603 F51  0.2+  0.0     240613 T05  0.3+  0.7-    240617 M22  0.1-  0.2-
Ephemeris:
2024 LJ6                 a,e,i = 1.36, 0.26, 30                  q = 1.0106
Date    TT    R. A. (2000) Decl.     Delta      r    Elong.  Phase     V
2024 05 22    18 17 59.5 +50 31 48   0.2403  1.0897   102.5    65.1    23.4
...
2024 06 06    18 23 28.9 +46 55 19   0.1010  1.0499   107.7    67.0    21.5
...
2024 06 14    18 30 01.8 +23 37 16   0.02724 1.0337   130.9    48.0    18.1
...
2024 06 20    05 50 48.9 -77 50 00   0.03749 1.0241   101.3    76.7    19.6
2024 06 21    06 03 00.0 -73 21 52   0.04651 1.0228    96.8    80.6    20.2
2024 06 22    06 08 08.1 -70 20 47   0.05571 1.0215    93.8    83.1    20.7
...
2024 06 28    06 16 12.1 -62 47 56   0.1118  1.0151    86.1    87.6    22.4
...
2024 07 06    06 18 34.0 -59 45 43   0.1857  1.0108    82.9    86.6    23.4
...
2024 07 21    06 20 00.8 -57 38 16   0.3147  1.0154    81.0    81.2    24.4
M. P. C. Staff               (C) Copyright 2024 MPC           M.P.E.C. 2024-M37
    
    
More information about the Iaude
mailing list